Joaquín Paz

Scout - Quilmes
19 Aug 2027
Donnerstag
Verarbeitung

Persönlichkeit

Anpassungsfähigkeit (5) Ehrgeiz (5) Kontroverse (1) Loyalität (12) Druck (17) Professionalität (2) Fairness (16) Temperament (10)

Profil

Trainerstil Demokratisch
Lizenz Kontinentale A
Entschlossenheit 5
Menschenführung 5
Motivation 6
Disziplin 3
Arbeitszufriedenheit
100%
Ermüdung
0%
Rolle Scout
Gehalt 23.1K p/W
Vertrag 14.03.2030

Leistung

Verhalten Gut
Trainingseffektivität
21%
Spielerentwicklung
35%
Verletzungsprävention
15%
Taktische Umsetzung
5%

Letzte Ereignisse

Nahm an einer Scouting-Besprechung teil jetzt
Nahm an einer Scouting-Besprechung teil jetzt
Nahm an einer Scouting-Besprechung teil jetzt
Nahm an einer Scouting-Besprechung teil jetzt
Nahm an einer Scouting-Besprechung teil jetzt
Nahm an einer Scouting-Besprechung teil 7T her
Nahm an einer Scouting-Besprechung teil 7T her
Nahm an einer Scouting-Besprechung teil 7T her

Aktuell beobachtet

140
Spieler Verein Status Fähigkeit Vertrauen Beobachtet Zuletzt beobachtet Letzte Stimme
Lucio Castillo Colegiales Aktiv 103 / 119 40% 1 29.05.2027 -
Agustín Ojeda Chaco For Ever Aktiv 101 / 119 40% 1 29.05.2027 -
Tomás Olase Defensor Sporting Aktiv 92 / 104 40% 1 28.05.2027 -
Brian Mendoza River Plate Aktiv 84 / 95 40% 1 27.05.2027 -
Matías Viguet Maipú Aktiv 109 / 106 40% 1 26.05.2027 Mehr Infos nötig
Agustín Díaz Estudiantes de Caracas Aktiv 78 / 74 40% 1 26.05.2027 -
Osciel De La Cruz Chiapas Aktiv 98 / 88 40% 3 24.05.2027 -
Hector Hernandez La Equidad Aktiv 98 / 96 40% 1 24.05.2027 -
Enzo Cabrera Danubio Aktiv 109 / 109 40% 3 23.05.2027 -
Federico Bisanz Atlanta Aktiv 105 / 104 40% 1 23.05.2027 -
Mateo Ortale Maipú Aktiv 113 / 103 40% 1 22.05.2027 Mehr Infos nötig
Franco Benítez Temperley Aktiv 112 / 120 40% 1 21.05.2027 -
Lautaro Montani Defensores Unidos Aktiv 118 / 108 40% 1 21.05.2027 Mehr Infos nötig
Tomás Ramírez Morón Aktiv 112 / 113 40% 2 20.05.2027 -
Lautaro Ríos Banfield Aktiv 110 / 124 40% 1 19.05.2027 -
Evelio Cardozo Nueva Chicago Aktiv 111 / 115 40% 1 19.05.2027 -
Blas Armoa Gimnasia y Esgrima Aktiv 130 / 121 40% 1 18.05.2027 Mehr Infos nötig
Enrique Femia Danubio Aktiv 119 / 107 40% 1 18.05.2027 Mehr Infos nötig
Julián Palacios Envigado Aktiv 106 / 111 40% 2 14.05.2027 -
Iñaki Larthirigoyen San Telmo Aktiv 124 / 110 40% 1 13.05.2027 -
Gabriel Norambuena Union Espanola Aktiv 97 / 105 40% 1 10.05.2027 -
Franco Díaz Temperley Aktiv 111 / 116 40% 2 09.05.2027 -
Maximiliano Luayza Koot Tristán Suárez Aktiv 120 / 104 40% 1 07.05.2027 Mehr Infos nötig
Daniel Zapata Envigado Aktiv 104 / 107 40% 1 06.05.2027 -
Santiago Sala Güemes Aktiv 114 / 107 40% 2 05.05.2027 -
Mario Sanabria Chacarita Juniors Aktiv 118 / 118 40% 1 05.05.2027 Mehr Infos nötig
Carlos Galicia Dorados Aktiv 102 / 109 40% 1 03.05.2027 -
Cesar Rubio Envigado Aktiv 113 / 106 40% 2 01.05.2027 -
Juan Peñaloza Independiente Medellin Aktiv 106 / 103 40% 1 01.05.2027 -
Gastón Moreyra Almirante Brown Aktiv 104 / 106 40% 2 29.04.2027 -
Gabriel Altamirano Almirante Brown Aktiv 115 / 109 40% 1 29.04.2027 -
Ángel Rico Puebla Aktiv 88 / 126 40% 1 23.04.2027 -
Kelvin Flórez Atletico Bucaramanga Aktiv 117 / 122 40% 2 17.04.2027 -
Santiago Kubiszyn Morón Aktiv 121 / 123 40% 1 17.04.2027 -
Franco Bigo 12 de Octubre Aktiv 98 / 97 40% 1 15.04.2027 -
Fernando Bersano Madryn Aktiv 108 / 124 40% 1 14.04.2027 -
Tomás Abdelnur Santos Laguna Aktiv 84 / 108 40% 1 14.04.2027 -
Ramón González Almirante Brown Aktiv 116 / 109 40% 1 13.04.2027 -
Matías Machado Racing Aktiv 111 / 112 40% 1 13.04.2027 -
Juan José Vásquez Union Magdalena Aktiv 87 / 90 40% 1 11.04.2027 -
Siro Rosané Estudiantes Aktiv 119 / 107 40% 1 11.04.2027 -
Matías Valenti Estudiantes Aktiv 94 / 105 40% 1 08.04.2027 -
Miqueas Pintos All Boys Aktiv 72 / 88 55% 1 14.12.2026 -
Alexei Dominguez Pachuca Aktiv 112 / 99 40% 2 29.11.2026 -
Agustín Arambillete Defensor Sporting Aktiv 71 / 82 40% 1 29.11.2026 -
Matías Sosa Arsenal Aktiv 108 / 120 40% 1 27.11.2026 -
Juan Mendoza Güemes Aktiv 98 / 112 40% 2 26.11.2026 -
Nahuel Galardi Maipú Aktiv 98 / 102 40% 3 25.11.2026 -
Christian Valladolid Alianza Atletico Aktiv 85 / 94 40% 1 25.11.2026 -
Renzo Reynaga Patronato Aktiv 110 / 113 40% 2 23.11.2026 -
Lautaro Gordillo Colegiales Aktiv 108 / 114 40% 1 23.11.2026 -
Carlos Garduño Real Salt Lake Aktiv 87 / 76 40% 1 22.11.2026 -
Fernando Hernández St. Louis CITY SC Aktiv 73 / 106 40% 1 22.11.2026 -
Ángel González Libertad Aktiv 115 / 98 40% 2 21.11.2026 -
Luca Franco Arsenal Aktiv 114 / 115 40% 2 20.11.2026 -
Augusto Berrondo Tristán Suárez Aktiv 110 / 103 40% 3 20.11.2026 -
Tomás Romero New York City Aktiv 113 / 90 40% 2 19.11.2026 -
Javier Bravo Mineros de Guayana Aktiv 66 / 66 40% 1 19.11.2026 -
Javier Martínez Almirante Brown Aktiv 97 / 97 40% 3 18.11.2026 -
Emiliano González Almagro Aktiv 114 / 117 40% 2 16.11.2026 -
Alejo Medina Agropecuario Argentino Aktiv 96 / 88 40% 1 15.11.2026 -
Gonzalo Siri Argentinos Juniors Aktiv 103 / 101 40% 1 13.11.2026 -
Nicolás Heiz Maipú Aktiv 101 / 104 40% 1 07.11.2026 -
Bruno Morales Cerro Aktiv 97 / 90 40% 1 05.11.2026 -
Hernán Domínguez Nacional Aktiv 72 / 88 40% 1 01.11.2026 -
Miguel Núñez Toronto FC Aktiv 78 / 107 40% 1 30.10.2026 -
Juan Bobba Estudiantes de Caracas Aktiv 84 / 86 40% 1 29.10.2026 -
Yoimer Pacheco Union Magdalena Aktiv 72 / 80 40% 1 28.10.2026 -
Agustín Gallo Tristán Suárez Aktiv 120 / 111 40% 2 24.10.2026 -
Lucas Viana Progreso Aktiv 78 / 83 40% 1 24.10.2026 -
Rafael Hornos Liverpool Montevideo Aktiv 98 / 85 40% 1 23.10.2026 -
Fernando García Carabobo Aktiv 71 / 82 40% 1 23.10.2026 -
Junior Paredes Trujillanos Aktiv 95 / 100 40% 1 23.10.2026 -
Keiber Roa Carabobo Aktiv 87 / 86 40% 1 21.10.2026 -
Matías Samaniego Talleres Aktiv 107 / 88 40% 1 20.10.2026 -
Cristian Núñez Huracán Aktiv 102 / 125 40% 1 20.10.2026 -
Kevin Isa Luna Central Norte Aktiv 95 / 116 40% 1 18.10.2026 -
Lisandro Cabrera Maipú Aktiv 102 / 112 40% 1 15.10.2026 -
Sebastián Cocimano Nueva Chicago Aktiv 118 / 121 40% 1 15.10.2026 -
Santiago Roggero Gimnasia y Esgrima Aktiv 102 / 109 40% 1 11.10.2026 -
Jerónimo Russo Newell's Old Boys Aktiv 89 / 110 40% 1 10.10.2026 -
Federico Amestoy Miramar Misiones Aktiv 82 / 81 40% 1 10.10.2026 -
Marco Miori Alvarado Aktiv 103 / 123 40% 1 05.10.2026 -
Sebastián Alzate Once Caldas Aktiv 77 / 85 40% 2 04.10.2026 -
Iván Chaves Patronato Aktiv 107 / 95 40% 1 03.10.2026 -
Javier Vallejos Central Córdoba SdE Aktiv 84 / 104 40% 1 02.10.2026 -
Juan Francisco Rossel Universidad Catolica Aktiv 92 / 102 40% 1 30.09.2026 -
Carlos Espinoza Mineros de Guayana Aktiv 74 / 75 40% 1 30.09.2026 -
Rodrigo Frutos Olimpia Aktiv 94 / 96 40% 2 29.09.2026 -
Marber Suárez Zulia Aktiv 89 / 92 40% 1 29.09.2026 -
Diego Méndez Tacuarembo Aktiv 99 / 105 40% 1 29.09.2026 -
Cristóbal Marín Antofagasta Aktiv 84 / 86 40% 1 28.09.2026 -
Gaspar Duarte Rosario Central Aktiv 104 / 127 40% 1 21.09.2026 -
Moisés Gallo Zulia Aktiv 104 / 105 40% 1 19.09.2026 -
Diego Valencia Universidad Catolica Aktiv 112 / 99 40% 1 18.09.2026 -
Mauricio Márquez Caracas Aktiv 103 / 94 40% 1 16.09.2026 -
Rodolfo Rodríguez River Plate Aktiv 89 / 96 40% 1 15.09.2026 -
Denis Olivera Danubio Aktiv 105 / 106 40% 1 15.09.2026 -
Sebastián Jaume Albion Aktiv 104 / 100 40% 1 13.09.2026 -
Agustín Olavarría Colon Aktiv 79 / 86 40% 1 11.09.2026 -
Francisco Valenzuela Estudiantes de Merida Aktiv 71 / 85 40% 1 10.09.2026 -
Nahuel Pezzini Arsenal Aktiv 109 / 95 40% 1 10.09.2026 -
Jorge Hernández Tijuana Aktiv 119 / 103 40% 1 08.09.2026 -
Diego Castillo Real Cartagena Aktiv 106 / 94 40% 1 05.09.2026 -
Lucas Verza Olimpia Aktiv 110 / 111 40% 1 04.09.2026 -
Hugo Gaona Sportivo Luqueno Aktiv 77 / 88 40% 1 04.09.2026 -
Williams Barlasina Fortaleza CEIF Aktiv 123 / 113 40% 1 02.09.2026 -
Julián Lobelos Arsenal Aktiv 103 / 93 40% 1 02.09.2026 -
Agustín Solari 12 de Octubre Aktiv 92 / 90 40% 2 01.09.2026 -
Juan Diego Jaramillo Depor Aktiv 109 / 94 40% 1 01.09.2026 -
José Juan Macías Pumas UNAM Aktiv 112 / 124 40% 2 31.08.2026 -
Hassan Vergara Deportivo Pasto Aktiv 109 / 103 40% 1 31.08.2026 -
Michel Silveira Rentistas Aktiv 91 / 100 40% 1 29.08.2026 -
Néstor Álvarez Tacuarembo Aktiv 89 / 81 40% 1 29.08.2026 -
Róyner Benítez Aguilas Doradas Aktiv 109 / 111 40% 2 28.08.2026 -
José Rivera Universitario Aktiv 116 / 123 40% 1 28.08.2026 -
Miguel Silva Carabobo Aktiv 95 / 102 40% 2 24.08.2026 -
Debinson Mateus Tigres Aktiv 94 / 97 40% 1 23.08.2026 -
Javier Bustillos Los Andes Aktiv 108 / 106 40% 1 23.08.2026 -
Ángel Espínola Sportivo Luqueno Aktiv 104 / 103 40% 1 22.08.2026 -
Agustín Módica Gimnasia y Esgrima Aktiv 123 / 122 40% 1 20.08.2026 -
Andrés Amaya Fortaleza CEIF Aktiv 117 / 123 40% 1 19.08.2026 -
Luciano Arriagada Huachipato Aktiv 111 / 109 40% 1 19.08.2026 -
Agustín Tejera Fenix Aktiv 83 / 94 40% 1 18.08.2026 -
Mathías Bordón Sol de America Aktiv 90 / 84 40% 1 15.08.2026 -
Tomás Giménez Gimnasia y Esgrima Aktiv 107 / 103 40% 1 14.08.2026 -
Rodrigo Mina Deportes Quindio Aktiv 75 / 71 40% 1 13.08.2026 -
Adriano Freitas Deportivo Maldonado Aktiv 109 / 114 40% 1 13.08.2026 -
Christian Castillo Tijuana Aktiv 81 / 83 40% 1 13.08.2026 -
Elías Torres Racing Club Aktiv 110 / 115 40% 1 13.08.2026 -
Franco Troyansky Audax Italiano Aktiv 119 / 112 40% 2 12.08.2026 -
Nahuel Suárez La Luz Aktiv 108 / 104 40% 1 09.08.2026 -
Jimmy Evans Universidad Catolica Aktiv 103 / 106 40% 1 08.08.2026 -
Kavier Ortiz Metropolitanos Aktiv 99 / 90 40% 1 08.08.2026 -
Pedro González Cerro Largo Aktiv 106 / 102 40% 1 08.08.2026 -
David Agudelo Depor Aktiv 93 / 101 40% 1 08.08.2026 -
Marcus Vinicius Deportivo Pereira Aktiv 114 / 116 40% 1 05.08.2026 -
Manuel Núñez Tacuarembo Aktiv 82 / 89 40% 1 04.08.2026 -
Hebert Vergara Liverpool Montevideo Aktiv 99 / 90 40% 1 03.08.2026 -
Sebastián Giraldo Depor Aktiv 88 / 81 40% 1 01.08.2026 -